Lid_Strength_Index
3 3 3 3 3 3 3 3 3 3 3 3 2 3 3 4 4 8 12 9 6 1 1 4 3 4 4 5 5 6 12 14 12 11 10 9 10 8 7 8 6 5 5 5 4
3 3 3 3 3 3 3 3 3 3 3 3 3 3 3 3 7 10 8 4 2 2 5 9 6 6 8 7 6 8 12 12 9 8 9 7 8 8 8 8 8 6 5 4 4
3 3 3 3 3 3 3 3 3 3 3 3 3 3 3 4 13 13 -1 2 2 1 4 4 6 5 10 7 7 8 11 9 8 7 7 7 7 6 8 9 8 8 7 6 5
4 4 4 4 4 4 4 4 3 3 3 3 3 3 3 7 18 9 2 2 2 5 5 6 8 10 9 9 7 10 7 7 8 7 6 7 6 7 8 7 6 6 6 5 6
3 3 3 3 3 3 3 3 3 3 3 4 4 4 7 12 12 8 3 5 7 7 4 8 10 11 12 10 7 9 8 7 6 6 6 6 7 7 7 5 5 5 5 6 6
4 4 4 4 4 4 3 3 3 3 3 3 3 4 9 15 9 7 7 6 7 9 9 6 9 10 12 11 8 11 8 7 6 7 7 8 8 8 7 5 6 6 6 6 6
4 4 4 4 4 3 3 3 2 2 2 2 3 5 9 11 6 6 7 8 8 7 10 9 6 8 11 13 10 10 13 12 11 10 9 8 10 9 7 6 7 6 6 6 7
4 4 4 3 3 3 3 2 2 2 1 2 2 6 10 5 5 6 6 7 7 8 8 9 8 10 10 11 12 12 12 14 11 11 10 9 13 9 7 7 8 7 7 7 7
4 3 3 3 3 3 3 3 2 2 2 2 6 8 11 5 6 5 5 7 7 7 8 7 9 11 10 12 15 15 15 15 13 9 10 10 12 9 8 8 8 8 8 7 7
4 3 3 3 3 3 3 3 3 3 3 4 5 10 10 10 8 7 6 7 8 8 9 10 12 14 14 14 17 17 17 14 14 11 10 11 12 9 8 7 8 8 8 8 7
4 4 3 3 3 3 6 8 10 11 10 12 11 10 9 7 6 8 7 8 9 11 14 12 15 17 14 12 12 12 14 15 13 11 10 11 11 10 9 9 9 9 8 8 7
4 4 4 4 4 4 8 10 9 10 13 9 9 9 7 7 9 7 5 9 11 15 13 14 16 13 12 12 13 13 15 15 13 12 13 13 14 12 11 11 9 8 8 8 8
4 4 4 4 4 7 9 8 8 9 14 10 8 8 6 6 7 7 5 7 9 12 13 15 13 11 12 14 13 14 14 14 14 11 11 13 14 12 11 11 10 9 9 8 9
4 4 4 4 7 9 9 6 7 8 16 13 9 6 5 6 7 4 3 7 10 11 11 13 11 12 13 14 14 16 12 12 13 14 16 13 18 13 11 11 11 11 9 9 9
4 4 4 5 9 9 7 7 7 10 22 10 8 4 4 7 6 5 3 6 10 11 11 12 12 13 14 14 12 15 12 13 13 15 16 15 17 16 13 13 12 10 9 9 9
3 4 4 7 7 7 6 7 8 16 21 11 8 8 8 7 6 5 6 5 5 9 9 11 9 10 11 11 11 11 13 14 14 16 20 16 16 17 14 13 11 10 10 9 9
3 3 5 6 10 7 7 9 16 20 11 11 10 8 9 9 8 7 8 10 12 15 15 10 10 10 9 12 11 13 17 20 20 21 20 15 17 16 13 12 11 11 10 10 9
4 5 5 6 7 6 9 13 19 13 12 8 9 9 11 9 9 9 10 12 10 11 14 16 16 11 9 11 13 15 16 19 21 21 20 14 18 16 11 10 9 9 10 9 10
5 8 9 7 5 7 11 17 16 12 9 10 10 12 12 10 10 10 11 11 10 10 15 15 14 9 8 9 9 13 16 15 18 17 20 18 16 13 11 10 10 10 10 10 10
9 9 9 6 6 9 13 13 13 9 8 9 13 11 14 12 12 12 12 10 10 8 9 11 15 10 9 8 9 12 11 17 18 20 22 19 18 17 14 12 10 10 10 10 9
10 10 7 7 7 10 16 14 11 8 7 10 11 12 11 13 12 13 12 10 9 9 8 10 13 13 10 12 14 13 14 14 16 18 21 21 19 14 12 12 11 11 10 9 7
11 12 7 8 13 14 15 11 8 9 7 8 9 10 11 11 12 12 12 10 7 8 12 10 13 16 13 9 9 11 13 13 17 18 18 20 19 12 12 12 11 11 9 8 7
10 10 7 9 18 17 12 10 9 9 9 9 10 8 9 11 13 11 11 7 7 9 11 10 14 17 15 12 10 13 11 12 13 14 18 20 19 12 12 12 11 10 10 9 7
10 14 12 12 13 15 11 12 11 7 8 8 9 9 10 11 11 12 11 8 7 8 6 8 12 15 17 15 12 14 12 11 13 17 17 17 16 13 11 11 10 10 9 10 7
13 15 11 16 16 15 12 11 11 11 8 7 10 10 11 13 12 12 10 9 8 7 9 10 14 13 13 12 12 13 13 12 13 14 17 15 16 14 11 11 11 11 9 7 7
16 13 12 14 13 13 12 11 11 10 9 10 11 10 10 12 11 13 11 11 11 9 10 10 14 13 14 12 12 14 12 12 12 12 14 15 16 12 10 8 9 10 8 7 7
12 12 12 13 14 16 15 10 11 10 8 7 8 9 10 10 9 9 8 8 9 10 11 12 13 15 16 12 13 16 13 13 12 11 12 16 14 10 10 9 8 8 7 7 7